Find OneWeb SL0247

NORAD ID: 48777 Int'l Des: 2021-045 Owner: ONEWEBN Country: UK Constellation: oneweb operational
LEOCIRCULARPOLARONEWEB_TYPE

当前视图

正在加载3D地球...

About OneWeb SL0247

OneWeb SL0247 (NORAD 48777) is a oneweb constellation satellite launched May 28, 2021 by ONEWEBN of UK. It operates in LEO, CIRCULAR, POLAR, ONEWEB_TYPE orbit with a mass of 148.00 kg.

关于 OneWeb SL0247

正在加载描述...

即将过境

Passes for default location (London). Set your location on the main map for personalized predictions.

高度历史

Loading altitude history...

两行轨道根数

1 48777U 21045L 26171.26566307 -.00000063 00000-0 -20191-3 0 9994
2 48777 87.9001 258.5997 0001222 111.6456 248.4804 13.15547821244812
Epoch: Jun 20, 2026 • Age: 45 hours

当前状态

高度 1227.4 km
速度 7.24 km/s
星下点 -65.19°S, 121.01°E
发射日期 May 28, 2021
运行时间 5 years
类型 internet

技术详情

分类 Payload
质量 148.00 kg
干质量 140.00 kg
总质量 148.00 kg
长度 1.30 m
直径 1.00 m
跨度 5.00 m
形状 Trapezoid+2 pan
制造商 ONEWUS
平台类型 ARROW
阶段状态 In Orbit
所有者/国家 ONEWEBN/UK

Most Searched